Home   Weather   Volta Redonda   Past weeks

Flag for Brazil Past Weather in Volta Redonda, Rio de Janeiro, Brazil — Yesterday and Last 2 Weeks

Now
70 °F

More clouds than sun.


Feels Like: 70 °F
Forecast: 60 / 72 °F
Wind: 12 mph from Southeast

Location: Galeao

Current Time: Sep 30, 2016 at 2:01:04 PM

Latest Report: Sep 30, 2016 at 1:00 PM


Visibility: N/A

Pressure: 30.01 "Hg

Humidity: 83%

Dew Point: 64 °F

Location of Volta RedondaLocation

Past Weather in Volta Redonda — Graph

°F

Volta Redonda Temperature Yesterday

Maximum temperature yesterday: 82 °F (at 1:00 PM)
Minimum temperature yesterday: 64 °F (at 3:00 AM)
Average temperature yesterday: 72 °F

High & Low Weather Summary for the Past Weeks

 TemperatureHumidityPressure
High90 °F (Sep 18, 1:00 PM)94% (Sep 18, 6:00 AM)30.21 "Hg (Sep 18, 6:00 AM)
Low63 °F (Sep 22, 4:00 AM)42% (Sep 15, 2:00 PM)29.83 "Hg (Sep 18, 3:00 PM)
Average70 °F75%30.05 "Hg
* Reported Sep 15 1:00 PM — Sep 30 1:00 PM, Volta Redonda, Weather by CustomWeather, © 2016

Note: Actual official high and low records may vary slightly from our data, if they occured in-between our weather recording intervals... More about our weather records

Advertising

Volta Redonda Weather History for the Previous 24 Hours

Scroll right to see more
 ConditionsComfort  
Time TempWeatherWind HumidityBarometerVisibility
1:00 PM
Fri, Sep 30
70 °FMore clouds than sun.12 mph83%30.01 "HgN/A
12:00 PM72 °FBroken clouds.5 mph69%30.04 "HgN/A
11:00 AM68 °FBroken clouds.7 mph83%30.07 "HgN/A
10:00 AM68 °FBroken clouds.3 mph88%30.07 "Hg5 mi
9:00 AM66 °FLight rain. Fog.5 mph94%N/A2 mi
8:00 AM66 °FLight rain. Fog.3 mph88%30.07 "Hg2 mi
7:00 AM68 °FLight rain. Broken clouds.2 mph83%30.04 "Hg4 mi
6:00 AM68 °FBroken clouds.5 mph83%30.01 "Hg5 mi
5:00 AM68 °FPartly cloudy.6 mph83%30.01 "HgN/A
4:00 AM68 °FPartly cloudy.6 mph83%29.98 "HgN/A
3:00 AM68 °FPartly cloudy.7 mph83%29.98 "HgN/A
2:00 AM68 °FPartly cloudy.5 mph83%29.98 "HgN/A
1:00 AM70 °FPartly cloudy.3 mph73%30.01 "HgN/A
12:00 AM68 °FLight rain. Passing clouds.5 mph83%30.01 "Hg4 mi
11:00 PM
Thu, Sep 29
68 °FLight rain. Partly cloudy.6 mph83%30.04 "Hg4 mi
10:00 PM70 °FPassing clouds.10 mph78%30.04 "HgN/A
9:00 PM72 °FPassing clouds.8 mph73%30.01 "HgN/A
8:00 PM72 °FPassing clouds.9 mph73%30.01 "HgN/A
7:00 PM72 °FPassing clouds.12 mph69%29.98 "HgN/A
6:00 PM73 °FPassing clouds.12 mph65%29.95 "HgN/A
5:00 PM75 °FPassing clouds.16 mph57%29.95 "HgN/A
4:00 PM75 °FPassing clouds.21 mph61%29.92 "HgN/A
3:00 PM79 °FPassing clouds.21 mph54%29.89 "HgN/A
2:00 PM81 °FPassing clouds.23 mph54%29.89 "HgN/A
Weather by CustomWeather, © 2016

See weather overviewHow to use our weather pages